This is the latest recevied weather packets stored in our database for station/object IW2LSY-11. If no packets are shown the sender has not sent any weather packets the latest 10 day(s).
| Time | Temp. | Humidity | Pressure | Rain* | Wind** | Luminosity | Snow |
|---|---|---|---|---|---|---|---|
| 1777645208 | 22.22° C | 30% | 1023.8 hPa | - | - | 498 W/m² | - |
| 1777644608 | 22.22° C | 31% | 1023.9 hPa | - | - | 498 W/m² | - |
| 1777644008 | 22.22° C | 31% | 1023.9 hPa | - | - | 497 W/m² | - |
| 1777643408 | 22.22° C | 30% | 1024 hPa | - | - | 495 W/m² | - |
| 1777642808 | 21.67° C | 31% | 1024.1 hPa | - | - | 496 W/m² | - |
| 1777642208 | 22.22° C | 31% | 1024.2 hPa | - | - | 495 W/m² | - |
| 1777641608 | 21.67° C | 31% | 1024.3 hPa | - | - | 496 W/m² | - |
| 1777641008 | 21.67° C | 32% | 1024.5 hPa | - | - | 493 W/m² | - |
| 1777640408 | 21.67° C | 32% | 1024.5 hPa | - | - | 492 W/m² | - |
| 1777639808 | 22.22° C | 31% | 1024.6 hPa | - | - | 488 W/m² | - |
| 1777639208 | 21.67° C | 31% | 1024.8 hPa | - | - | 488 W/m² | - |
| 1777638608 | 21.67° C | 32% | 1024.9 hPa | - | - | 487 W/m² | - |
| 1777638008 | 21.67° C | 32% | 1025 hPa | - | - | 482 W/m² | - |
| 1777637408 | 21.67° C | 33% | 1025 hPa | - | - | 478 W/m² | - |
| 1777636808 | 21.67° C | 33% | 1025.2 hPa | - | - | 476 W/m² | - |
| 1777636208 | 21.11° C | 34% | 1025.3 hPa | - | - | 471 W/m² | - |
| 1777635609 | 21.11° C | 34% | 1025.4 hPa | - | - | 465 W/m² | - |
| 1777635009 | 20.56° C | 34% | 1025.6 hPa | - | - | 460 W/m² | - |
| 1777634410 | 21.11° C | 35% | 1025.8 hPa | - | - | 458 W/m² | - |
| 1777633810 | 20.56° C | 34% | 1025.9 hPa | - | - | 452 W/m² | - |
| 1777633209 | 20.56° C | 34% | 1026 hPa | - | - | 445 W/m² | - |
| 1777632609 | 20° C | 34% | 1026.2 hPa | - | - | 439 W/m² | - |
| 1777632009 | 19.44° C | 33% | 1026.4 hPa | - | - | 435 W/m² | - |
| 1777631409 | 20° C | 35% | 1026.5 hPa | - | - | 434 W/m² | - |
| 1777630810 | 18.89° C | 34% | 1026.6 hPa | - | - | 429 W/m² | - |
* Rain since midnight (hover to see other rain measurements)
** Current wind speed in m/s (hover to see current wind gust speed)